Weather Roundup
Issued by NWS

Home | Current Version | Previous Version | Text Only | Print | Product List | Glossary On
Versions: 1 2 3 4 5 6 7 8 9 10 11 12 13 14 15 16 17 18 19 20 21 22 23 24 25 26 27 28 29 30 31 32 33 34 35 36 37 38 39 40 41 42 43 44 45 46 47 48 49 50
000
NZUS93 KARX 231059
HRRWXR

CURRENT HOURLY OBSERVATIONS ACROSS
MUCH OF THE UPPER MISSISSIPPI VALLEY
NATIONAL WEATHER SERVICE LA CROSSE WI
600 AM CDT WED JUL 23 2014


...SOUTHEAST MINNESOTA...


CITY           SKY/WX    TMP DP  RH WIND       PRES   REMARKS
ROCHESTER      CLEAR     61  56  83 NE5       30.22F
ROCHESTER/MAYO FAIR      62  56  82 CALM      30.21S
WINONA         CLEAR     61  59  94 CALM      30.20S
AUSTIN         CLEAR     59  55  88 CALM      30.20F
ALBERT LEA     CLEAR     59  57  94 CALM      30.22R
DODGE CENTER   CLEAR     59  55  88 CALM      30.21F
PRESTON        PTCLDY    59  59 100 N3        30.21S
OWATONNA       CLEAR     57  54  88 CALM      30.22R
FARIBAULT      CLEAR     57  52  82 N3        30.23R
$$

...ELSEWHERE IN MINNESOTA...


CITY           SKY/WX    TMP DP  RH WIND       PRES   REMARKS
MINNEAPOLIS    PTCLDY    63  57  81 NW5       30.23R
INTNL FALLS    CLOUDY    60  55  83 N3        30.27R
DULUTH         PTCLDY    56  51  84 N3        30.24R
RED WING       MOCLDY    59  57  94 CALM      30.20S
REDWOOD FALLS  CLEAR     60  54  80 N7        30.26R
MANKATO        CLEAR     59  52  77 CALM      30.24R
WORTHINGTON    PTCLDY    55  52  88 N7        30.27R
FAIRMONT       CLEAR     55  52  88 N8        30.23R
$$

...SOUTHWEST WISCONSIN...


CITY           SKY/WX    TMP DP  RH WIND       PRES   REMARKS
LA CROSSE      CLEAR     61  58  90 N3        30.20R
PRAIRIE DU CHI CLEAR     63  57  80 CALM      30.17R
BOSCOBEL       CLEAR     58  56  93 CALM      30.19R
LONE ROCK      NOT AVBL
PLATTEVILLE    CLEAR     59  57  94 N5        30.17R
FORT MC COY    CLEAR     52  51  95 CALM      30.20R
VIROQUA        FAIR      57  57 100 CALM      30.20R
WIS DELLS      CLEAR     58  55  89 CALM      30.17S
$$

...ELSEWHERE IN WISCONSIN...


CITY           SKY/WX    TMP DP  RH WIND       PRES   REMARKS
MILWAUKEE      CLEAR     61  53  75 N12       30.13R
MADISON        CLEAR     60  55  83 N6        30.15S
GREEN BAY      CLEAR     58  55  90 N9        30.16R
EAU CLAIRE     NOT AVBL
BLACK RVR FLS  FOG       50  50 100 CALM      30.20R VSB<1/4
MEDFORD        FOG       50  50  99 CALM      30.21R VSB 1
WAUSAU         CLEAR     57  56  96 NW6       30.19R
WIS RAPIDS     FOG       55  54  96 CALM      30.21R VSB 1/2
MARSHFIELD     CLEAR     56  54  93 CALM      30.20R
RICE LAKE      FOG       54  53  95 CALM      30.23R VSB 1/2
$$

...NORTHEAST IOWA...


CITY           SKY/WX    TMP DP  RH WIND       PRES   REMARKS
WATERLOO       CLEAR     62  59  90 N5        30.17R
DUBUQUE        CLEAR     63  60  90 NE8       30.17R
DECORAH        CLOUDY    63  61  94 N3        30.19R
MASON CITY     CLEAR     57  55  93 CALM      30.22R
CHARLES CITY   CLEAR     61  57  88 N6        30.20S
OELWEIN        CLEAR     63  61  94 NE7       30.19R
$$

...ELSEWHERE IN IOWA...


CITY           SKY/WX    TMP DP  RH WIND       PRES   REMARKS
DES MOINES     PTCLDY    68  59  73 N7        30.15S
IOWA CITY      CLEAR     68  64  87 N9        30.14R
FORT DODGE     PTCLDY    59  55  88 CALM      30.21S
MARSHALLTOWN   CLEAR     62  59  90 NE6       30.16R
CEDAR RAPIDS   CLEAR     66  62  87 N9        30.14R
$$

...NORTHERN ILLINOIS...


CITY           SKY/WX    TMP DP  RH WIND       PRES   REMARKS
CHICAGO-OHARE  PTCLDY    65  52  62 N15       30.10R
DUPAGE         CLEAR     62  55  77 N12       30.10R
CHICAGO-MIDWAY MOCLDY    67  58  72 N13       30.09R
MOLINE         CLEAR     70  63  78 NE7       30.11R
ROCKFORD       CLEAR     64  56  75 NE12      30.15R
STERLING       CLEAR     66  61  82 E13       30.12R
PEORIA         CLEAR     75  65  70 NE10      30.06R
$$

NOTE: "FAIR" INDICATES FEW OR NO CLOUDS BELOW 12,000 FEET WITH NO
SIGNIFICANT WEATHER AND/OR OBSTRUCTIONS TO VISIBILITY. WIND
SPEEDS ARE IN MILES-PER-HOUR.



USA.gov is the U.S. government's official web portal to all federal, state and local government web resources and services.